Time,TemperatureF,DewpointF,PressureIn,WindDirection,WindDirectionDegrees,WindSpeedMPH,WindSpeedGustMPH,Humidity,HourlyPrecipIn,Conditions,Clouds,dailyrainin,SoftwareType,DateUTC
2013-07-20 07:24:00,77.0,70.7,29.73,SE,135,0.0,0.0,81,0.00,,---,0.00,VWS V14.01,2013-07-20 11:24:00,
2013-07-20 07:29:00,77.0,70.0,29.73,SSW,202,0.0,2.0,79,0.00,,---,0.00,VWS V14.01,2013-07-20 11:29:00,
2013-07-20 07:34:00,78.0,70.6,29.73,WSW,247,0.0,0.0,78,0.00,,---,0.00,VWS V14.01,2013-07-20 11:34:00,
2013-07-20 07:39:00,78.0,69.8,29.73,WSW,247,0.0,0.0,76,0.00,,---,0.00,VWS V14.01,2013-07-20 11:39:00,
2013-07-20 07:44:00,78.0,69.8,29.73,South,180,0.0,1.0,76,0.00,,---,0.00,VWS V14.01,2013-07-20 11:44:00,
2013-07-20 07:49:00,78.0,69.1,29.73,South,180,0.0,0.0,74,0.00,,---,0.00,VWS V14.01,2013-07-20 11:49:00,
2013-07-20 07:54:00,79.0,70.0,29.73,South,180,0.0,0.0,74,0.00,,---,0.00,VWS V14.01,2013-07-20 11:54:00,
2013-07-20 07:59:00,79.0,69.6,29.73,SW,225,0.0,0.0,73,0.00,,---,0.00,VWS V14.01,2013-07-20 11:59:00,
2013-07-20 08:04:00,79.0,70.0,29.74,SSW,202,0.0,0.0,74,0.00,,---,0.00,VWS V14.01,2013-07-20 12:04:00,
2013-07-20 08:09:00,79.0,70.8,29.74,SSW,202,0.0,0.0,76,0.00,,---,0.00,VWS V14.01,2013-07-20 12:09:00,
2013-07-20 08:14:00,79.0,70.4,29.74,SW,225,0.0,2.0,75,0.00,,---,0.00,VWS V14.01,2013-07-20 12:14:00,
2013-07-20 08:19:00,79.0,70.4,29.74,SSE,157,0.0,2.0,75,0.00,,---,0.00,VWS V14.01,2013-07-20 12:19:00,
2013-07-20 08:24:00,80.0,71.4,29.74,SW,225,0.0,2.0,75,0.00,,---,0.00,VWS V14.01,2013-07-20 12:24:00,
2013-07-20 08:29:00,80.0,71.8,29.74,SW,225,0.0,1.0,76,0.00,,---,0.00,VWS V14.01,2013-07-20 12:29:00,
2013-07-20 08:34:00,80.0,71.8,29.74,NNW,337,0.0,2.0,76,0.00,,---,0.00,VWS V14.01,2013-07-20 12:34:00,
2013-07-20 08:39:00,80.0,71.8,29.74,NW,315,0.0,0.0,76,0.00,,---,0.00,VWS V14.01,2013-07-20 12:39:00,
2013-07-20 08:44:00,80.0,71.8,29.74,NNW,337,0.0,2.0,76,0.00,,---,0.00,VWS V14.01,2013-07-20 12:44:00,
2013-07-20 08:49:00,80.0,72.2,29.74,NE,45,1.0,2.0,77,0.00,,---,0.00,VWS V14.01,2013-07-20 12:49:00,
2013-07-20 08:54:00,80.0,71.8,29.74,SSW,202,1.0,2.0,76,0.00,,---,0.00,VWS V14.01,2013-07-20 12:54:00,
2013-07-20 08:59:00,80.0,72.2,29.74,South,180,0.0,2.0,77,0.00,,---,0.00,VWS V14.01,2013-07-20 12:59:00,
2013-07-20 09:04:00,81.0,72.7,29.73,WSW,247,0.0,1.0,76,0.00,,---,0.00,VWS V14.01,2013-07-20 13:04:00,
2013-07-20 09:09:00,81.0,72.7,29.74,West,270,0.0,1.0,76,0.00,,---,0.00,VWS V14.01,2013-07-20 13:09:00,
2013-07-20 09:14:00,81.0,72.3,29.74,NNW,337,0.0,4.0,75,0.00,,---,0.00,VWS V14.01,2013-07-20 13:14:00,
2013-07-20 09:19:00,82.0,72.9,29.74,SW,225,0.0,2.0,74,0.00,,---,0.00,VWS V14.01,2013-07-20 13:19:00,
2013-07-20 09:24:00,82.0,72.9,29.73,WSW,247,0.0,2.0,74,0.00,,---,0.00,VWS V14.01,2013-07-20 13:24:00,
2013-07-20 09:29:00,82.0,72.9,29.73,South,180,0.0,3.0,74,0.00,,---,0.00,VWS V14.01,2013-07-20 13:29:00,
2013-07-20 09:34:00,82.0,72.9,29.73,North,360,0.0,0.0,74,0.00,,---,0.00,VWS V14.01,2013-07-20 13:34:00,
2013-07-20 09:39:00,83.0,73.5,29.73,WSW,247,0.0,2.0,73,0.00,,---,0.00,VWS V14.01,2013-07-20 13:39:00,
2013-07-20 09:44:00,83.0,73.1,29.73,SSW,202,0.0,2.0,72,0.00,,---,0.00,VWS V14.01,2013-07-20 13:44:00,
2013-07-20 09:49:00,83.0,72.2,29.73,West,270,2.0,3.0,70,0.00,,---,0.00,VWS V14.01,2013-07-20 13:49:00,
2013-07-20 09:54:00,83.0,72.6,29.72,WNW,292,0.0,2.0,71,0.00,,---,0.00,VWS V14.01,2013-07-20 13:54:00,
2013-07-20 09:59:00,84.0,73.2,29.73,SSW,202,0.0,2.0,70,0.00,,---,0.00,VWS V14.01,2013-07-20 13:59:00,
2013-07-20 10:04:00,84.0,72.7,29.73,South,180,0.0,4.0,69,0.00,,---,0.00,VWS V14.01,2013-07-20 14:04:00,
2013-07-20 10:09:00,84.0,71.9,29.72,NW,315,3.0,9.0,67,0.00,,---,0.00,VWS V14.01,2013-07-20 14:09:00,
2013-07-20 10:14:00,84.0,72.3,29.73,SSE,157,0.0,5.0,68,0.00,,---,0.00,VWS V14.01,2013-07-20 14:14:00,
2013-07-20 10:19:00,84.0,72.3,29.73,WSW,247,0.0,2.0,68,0.00,,---,0.00,VWS V14.01,2013-07-20 14:19:00,
2013-07-20 10:24:00,84.0,72.7,29.73,SW,225,0.0,0.0,69,0.00,,---,0.00,VWS V14.01,2013-07-20 14:24:00,
2013-07-20 10:29:00,85.0,71.9,29.73,SW,225,2.0,5.0,65,0.00,,---,0.00,VWS V14.01,2013-07-20 14:29:00,
2013-07-20 10:34:00,85.0,71.9,29.73,SSE,157,0.0,2.0,65,0.00,,---,0.00,VWS V14.01,2013-07-20 14:34:00,
2013-07-20 10:39:00,85.0,71.0,29.73,SW,225,0.0,5.0,63,0.00,,---,0.00,VWS V14.01,2013-07-20 14:39:00,
2013-07-20 10:44:00,85.0,70.5,29.73,SSW,202,1.0,6.0,62,0.00,,---,0.00,VWS V14.01,2013-07-20 14:44:00,
2013-07-20 10:49:00,86.0,71.0,29.72,SSE,157,2.0,6.0,61,0.00,,---,0.00,VWS V14.01,2013-07-20 14:49:00,
2013-07-20 10:54:00,86.0,70.5,29.73,NNE,22,0.0,4.0,60,0.00,,---,0.00,VWS V14.01,2013-07-20 14:54:00,
2013-07-20 10:59:00,86.0,70.5,29.73,SW,225,0.0,6.0,60,0.00,,---,0.00,VWS V14.01,2013-07-20 14:59:00,
2013-07-20 11:04:00,87.0,70.9,29.73,West,270,0.0,6.0,59,0.00,,---,0.00,VWS V14.01,2013-07-20 15:04:00,
2013-07-20 11:09:00,87.0,70.9,29.73,ENE,67,0.0,2.0,59,0.00,,---,0.00,VWS V14.01,2013-07-20 15:09:00,
2013-07-20 11:14:00,87.0,70.4,29.72,SW,225,1.0,4.0,58,0.00,,---,0.00,VWS V14.01,2013-07-20 15:14:00,
2013-07-20 11:19:00,87.0,69.9,29.73,SW,225,1.0,4.0,57,0.00,,---,0.00,VWS V14.01,2013-07-20 15:19:00,
2013-07-20 11:24:00,88.0,71.4,29.73,South,180,2.0,2.0,58,0.00,,---,0.00,VWS V14.01,2013-07-20 15:24:00,
2013-07-20 11:29:00,88.0,71.4,29.73,NW,315,0.0,3.0,58,0.00,,---,0.00,VWS V14.01,2013-07-20 15:29:00,
2013-07-20 11:34:00,88.0,69.8,29.72,SSE,157,0.0,4.0,55,0.00,,---,0.00,VWS V14.01,2013-07-20 15:34:00,
2013-07-20 11:39:00,88.0,70.9,29.72,West,270,0.0,5.0,57,0.00,,---,0.00,VWS V14.01,2013-07-20 15:39:00,
2013-07-20 11:44:00,88.0,68.7,29.72,WSW,247,2.0,4.0,53,0.00,,---,0.00,VWS V14.01,2013-07-20 15:44:00,
2013-07-20 11:49:00,89.0,70.2,29.72,WNW,292,0.0,3.0,54,0.00,,---,0.00,VWS V14.01,2013-07-20 15:49:00,
2013-07-20 11:54:00,90.0,71.7,29.72,North,360,0.0,2.0,55,0.00,,---,0.00,VWS V14.01,2013-07-20 15:54:00,
2013-07-20 11:59:00,89.0,68.5,29.72,SSE,157,2.0,4.0,51,0.00,,---,0.00,VWS V14.01,2013-07-20 15:59:00,
2013-07-20 12:04:00,89.0,69.7,29.71,NNE,22,0.0,4.0,53,0.00,,---,0.00,VWS V14.01,2013-07-20 16:04:00,
2013-07-20 12:09:00,89.0,69.7,29.71,West,270,0.0,2.0,53,0.00,,---,0.00,VWS V14.01,2013-07-20 16:09:00,
2013-07-20 12:14:00,90.0,69.5,29.72,NW,315,0.0,4.0,51,0.00,,---,0.00,VWS V14.01,2013-07-20 16:14:00,
2013-07-20 12:19:00,90.0,68.9,29.72,WNW,292,3.0,4.0,50,0.00,,---,0.00,VWS V14.01,2013-07-20 16:19:00,
2013-07-20 12:24:00,89.0,68.0,29.72,SSW,202,0.0,2.0,50,0.00,,---,0.00,VWS V14.01,2013-07-20 16:24:00,
2013-07-20 12:29:00,89.0,69.7,29.72,WNW,292,2.0,3.0,53,0.00,,---,0.00,VWS V14.01,2013-07-20 16:29:00,
2013-07-20 12:34:00,89.0,70.2,29.71,NNE,22,0.0,2.0,54,0.00,,---,0.00,VWS V14.01,2013-07-20 16:34:00,
2013-07-20 12:38:00,89.0,70.2,29.71,SSW,202,0.0,7.0,54,0.00,,---,0.00,VWS V14.01,2013-07-20 16:38:00,
2013-07-20 12:44:00,90.0,69.5,29.71,South,180,2.0,4.0,51,0.00,,---,0.00,VWS V14.01,2013-07-20 16:44:00,
2013-07-20 12:49:00,90.0,69.5,29.71,WSW,247,1.0,4.0,51,0.00,,---,0.00,VWS V14.01,2013-07-20 16:49:00,
2013-07-20 12:53:00,90.0,71.7,29.71,NNE,22,2.0,2.0,55,0.00,,---,0.00,VWS V14.01,2013-07-20 16:53:00,
2013-07-20 12:58:00,91.0,69.8,29.71,SW,225,1.0,4.0,50,0.00,,---,0.00,VWS V14.01,2013-07-20 16:58:00,
2013-07-20 13:03:00,91.0,69.2,29.70,NE,45,0.0,2.0,49,0.00,,---,0.00,VWS V14.01,2013-07-20 17:03:00,
2013-07-20 13:08:00,91.0,69.8,29.70,NE,45,0.0,3.0,50,0.00,,---,0.00,VWS V14.01,2013-07-20 17:08:00,
2013-07-20 13:13:00,91.0,69.8,29.70,North,360,0.0,4.0,50,0.00,,---,0.00,VWS V14.01,2013-07-20 17:13:00,
2013-07-20 13:18:00,92.0,71.3,29.70,SSW,202,0.0,2.0,51,0.00,,---,0.00,VWS V14.01,2013-07-20 17:18:00,
2013-07-20 13:23:00,91.0,69.2,29.70,West,270,0.0,0.0,49,0.00,,---,0.00,VWS V14.01,2013-07-20 17:23:00,
2013-07-20 13:28:00,90.0,69.5,29.70,West,270,0.0,2.0,51,0.00,,---,0.00,VWS V14.01,2013-07-20 17:28:00,
2013-07-20 13:33:00,89.0,70.2,29.70,West,270,0.0,2.0,54,0.00,,---,0.00,VWS V14.01,2013-07-20 17:33:00,
2013-07-20 13:38:00,88.0,70.9,29.69,South,180,0.0,0.0,57,0.00,,---,0.00,VWS V14.01,2013-07-20 17:38:00,
2013-07-20 13:43:00,88.0,70.9,29.69,NNW,337,0.0,2.0,57,0.00,,---,0.00,VWS V14.01,2013-07-20 17:43:00,
2013-07-20 13:48:00,88.0,72.4,29.69,North,360,0.0,1.0,60,0.00,,---,0.00,VWS V14.01,2013-07-20 17:48:00,
2013-07-20 13:53:00,89.0,71.8,29.69,NW,315,0.0,2.0,57,0.00,,---,0.00,VWS V14.01,2013-07-20 17:53:00,
2013-07-20 13:58:00,89.0,71.3,29.69,NE,45,0.0,2.0,56,0.00,,---,0.00,VWS V14.01,2013-07-20 17:58:00,
2013-07-20 14:03:00,89.0,71.8,29.68,North,360,0.0,0.0,57,0.00,,---,0.00,VWS V14.01,2013-07-20 18:03:00,
2013-07-20 14:08:00,87.0,74.3,29.68,North,360,0.0,0.0,66,0.02,,---,0.03,VWS V14.01,2013-07-20 18:08:00,
2013-07-20 14:13:00,85.0,75.4,29.69,ESE,112,0.0,2.0,73,0.08,,---,0.08,VWS V14.01,2013-07-20 18:13:00,
2013-07-20 14:18:00,82.0,74.8,29.68,NW,315,0.0,2.0,79,0.08,,---,0.08,VWS V14.01,2013-07-20 18:18:00,
2013-07-20 14:23:00,80.0,74.7,29.68,NW,315,0.0,0.0,84,0.09,,---,0.09,VWS V14.01,2013-07-20 18:23:00,
2013-07-20 14:28:00,79.0,75.2,29.68,NW,315,0.0,0.0,88,0.09,,---,0.09,VWS V14.01,2013-07-20 18:28:00,
2013-07-20 14:33:00,79.0,75.8,29.68,SSW,202,0.0,2.0,90,0.09,,---,0.09,VWS V14.01,2013-07-20 18:33:00,
2013-07-20 14:38:00,79.0,76.8,29.68,South,180,0.0,0.0,93,0.10,,---,0.10,VWS V14.01,2013-07-20 18:38:00,
2013-07-20 14:43:00,79.0,77.1,29.67,South,180,0.0,0.0,94,0.10,,---,0.10,VWS V14.01,2013-07-20 18:43:00,
2013-07-20 14:48:00,80.0,77.8,29.67,South,180,0.0,0.0,93,0.10,,---,0.10,VWS V14.01,2013-07-20 18:48:00,
2013-07-20 14:53:00,81.0,77.8,29.67,South,180,0.0,0.0,90,0.10,,---,0.10,VWS V14.01,2013-07-20 18:53:00,
2013-07-20 14:58:00,82.0,77.8,29.67,South,180,0.0,0.0,87,0.10,,---,0.10,VWS V14.01,2013-07-20 18:58:00,
2013-07-20 15:04:00,82.0,77.1,29.67,South,180,0.0,0.0,85,0.10,,---,0.10,VWS V14.01,2013-07-20 19:04:00,
2013-07-20 15:09:00,83.0,77.3,29.67,South,180,0.0,0.0,83,0.09,,---,0.10,VWS V14.01,2013-07-20 19:09:00,
2013-07-20 15:14:00,84.0,78.7,29.67,SE,135,0.0,2.0,84,0.07,,---,0.10,VWS V14.01,2013-07-20 19:14:00,
2013-07-20 15:19:00,84.0,76.4,29.68,NW,315,0.0,2.0,78,0.02,,---,0.10,VWS V14.01,2013-07-20 19:19:00,
2013-07-20 15:24:00,84.0,77.5,29.68,North,360,0.0,0.0,81,0.02,,---,0.10,VWS V14.01,2013-07-20 19:24:00,
2013-07-20 15:29:00,85.0,78.1,29.68,WNW,292,0.0,2.0,80,0.01,,---,0.10,VWS V14.01,2013-07-20 19:29:00,
2013-07-20 15:34:00,86.0,74.2,29.68,SE,135,1.0,2.0,68,0.01,,---,0.10,VWS V14.01,2013-07-20 19:34:00,
2013-07-20 15:39:00,86.0,72.4,29.68,NW,315,3.0,4.0,64,0.01,,---,0.10,VWS V14.01,2013-07-20 19:39:00,
2013-07-20 15:44:00,87.0,73.8,29.68,WSW,247,0.0,4.0,65,0.00,,---,0.10,VWS V14.01,2013-07-20 19:44:00,
2013-07-20 15:49:00,87.0,73.4,29.68,West,270,0.0,2.0,64,0.00,,---,0.10,VWS V14.01,2013-07-20 19:49:00,
2013-07-20 15:54:00,88.0,70.3,29.68,SSW,202,4.0,7.0,56,0.00,,---,0.10,VWS V14.01,2013-07-20 19:54:00,
2013-07-20 15:59:00,88.0,68.7,29.68,SSW,202,2.0,4.0,53,0.00,,---,0.10,VWS V14.01,2013-07-20 19:59:00,
2013-07-20 16:04:00,88.0,66.5,29.68,NNW,337,0.0,6.0,49,0.00,,---,0.10,VWS V14.01,2013-07-20 20:04:00,
2013-07-20 16:09:00,88.0,69.3,29.68,North,360,0.0,3.0,54,0.00,,---,0.10,VWS V14.01,2013-07-20 20:09:00,
2013-07-20 16:14:00,89.0,69.7,29.69,SW,225,2.0,3.0,53,0.00,,---,0.10,VWS V14.01,2013-07-20 20:14:00,
2013-07-20 16:19:00,89.0,67.4,29.69,SW,225,0.0,4.0,49,0.00,,---,0.10,VWS V14.01,2013-07-20 20:19:00,
2013-07-20 16:24:00,89.0,66.8,29.69,South,180,2.0,4.0,48,0.00,,---,0.10,VWS V14.01,2013-07-20 20:24:00,
2013-07-20 16:29:00,89.0,67.4,29.69,SE,135,0.0,4.0,49,0.00,,---,0.10,VWS V14.01,2013-07-20 20:29:00,
2013-07-20 16:34:00,89.0,66.8,29.69,SW,225,2.0,2.0,48,0.00,,---,0.10,VWS V14.01,2013-07-20 20:34:00,
2013-07-20 16:39:00,89.0,67.4,29.69,SW,225,1.0,3.0,49,0.00,,---,0.10,VWS V14.01,2013-07-20 20:39:00,
2013-07-20 16:44:00,89.0,67.4,29.69,SW,225,1.0,3.0,49,0.00,,---,0.10,VWS V14.01,2013-07-20 20:44:00,
2013-07-20 16:49:00,88.0,67.6,29.70,South,180,1.0,2.0,51,0.00,,---,0.10,VWS V14.01,2013-07-20 20:49:00,
2013-07-20 16:54:00,88.0,68.7,29.70,NW,315,0.0,2.0,53,0.00,,---,0.10,VWS V14.01,2013-07-20 20:54:00,
2013-07-20 16:59:00,87.0,68.9,29.70,SE,135,0.0,0.0,55,0.00,,---,0.10,VWS V14.01,2013-07-20 20:59:00,
2013-07-20 17:04:00,87.0,67.8,29.70,North,360,1.0,5.0,53,0.00,,---,0.10,VWS V14.01,2013-07-20 21:04:00,
2013-07-20 17:09:00,87.0,69.4,29.70,SW,225,0.0,2.0,56,0.00,,---,0.10,VWS V14.01,2013-07-20 21:09:00,
2013-07-20 17:14:00,87.0,70.4,29.71,WSW,247,0.0,2.0,58,0.00,,---,0.10,VWS V14.01,2013-07-20 21:14:00,
2013-07-20 17:19:00,87.0,69.4,29.71,NNW,337,2.0,6.0,56,0.00,,---,0.10,VWS V14.01,2013-07-20 21:19:00,
2013-07-20 17:24:00,86.0,70.0,29.71,SSW,202,0.0,2.0,59,0.00,,---,0.10,VWS V14.01,2013-07-20 21:24:00,
2013-07-20 17:29:00,87.0,69.4,29.71,SW,225,0.0,2.0,56,0.00,,---,0.10,VWS V14.01,2013-07-20 21:29:00,
2013-07-20 17:34:00,86.0,68.5,29.71,WNW,292,0.0,3.0,56,0.00,,---,0.10,VWS V14.01,2013-07-20 21:34:00,
2013-07-20 17:39:00,86.0,69.0,29.71,SW,225,0.0,2.0,57,0.00,,---,0.10,VWS V14.01,2013-07-20 21:39:00,
2013-07-20 17:44:00,86.0,69.0,29.71,WNW,292,0.0,3.0,57,0.00,,---,0.10,VWS V14.01,2013-07-20 21:44:00,
2013-07-20 17:50:00,85.0,68.6,29.71,SSE,157,0.0,2.0,58,0.00,,---,0.10,VWS V14.01,2013-07-20 21:50:00,
2013-07-20 17:55:00,86.0,69.5,29.71,WSW,247,0.0,2.0,58,0.00,,---,0.10,VWS V14.01,2013-07-20 21:55:00,
2013-07-20 18:00:00,86.0,69.5,29.72,WSW,247,0.0,0.0,58,0.00,,---,0.10,VWS V14.01,2013-07-20 22:00:00,
2013-07-20 18:05:00,86.0,69.0,29.72,NW,315,0.0,2.0,57,0.00,,---,0.10,VWS V14.01,2013-07-20 22:05:00,
2013-07-20 18:10:00,85.0,68.6,29.72,SSE,157,0.0,2.0,58,0.00,,---,0.10,VWS V14.01,2013-07-20 22:10:00,
2013-07-20 18:15:00,85.0,69.1,29.71,SSW,202,0.0,1.0,59,0.00,,---,0.10,VWS V14.01,2013-07-20 22:15:00,
2013-07-20 18:20:00,84.0,69.6,29.71,SSW,202,0.0,0.0,62,0.00,,---,0.10,VWS V14.01,2013-07-20 22:20:00,
2013-07-20 18:25:00,84.0,70.1,29.71,West,270,0.0,2.0,63,0.00,,---,0.10,VWS V14.01,2013-07-20 22:25:00,
2013-07-20 18:30:00,83.0,69.1,29.71,South,180,0.0,2.0,63,0.00,,---,0.10,VWS V14.01,2013-07-20 22:30:00,
2013-07-20 18:35:00,83.0,70.5,29.71,NNW,337,0.0,2.0,66,0.00,,---,0.10,VWS V14.01,2013-07-20 22:35:00,
2013-07-20 18:40:00,83.0,70.9,29.71,NNW,337,0.0,0.0,67,0.00,,---,0.10,VWS V14.01,2013-07-20 22:40:00,
2013-07-20 18:45:00,82.0,70.4,29.71,NNW,337,0.0,0.0,68,0.00,,---,0.10,VWS V14.01,2013-07-20 22:45:00,
2013-07-20 18:50:00,82.0,70.4,29.71,NNW,337,0.0,0.0,68,0.00,,---,0.10,VWS V14.01,2013-07-20 22:50:00,
2013-07-20 18:55:00,82.0,70.8,29.70,NW,315,0.0,0.0,69,0.00,,---,0.10,VWS V14.01,2013-07-20 22:55:00,
2013-07-20 19:00:00,82.0,71.3,29.71,NW,315,0.0,0.0,70,0.00,,---,0.10,VWS V14.01,2013-07-20 23:00:00,
2013-07-20 19:05:00,82.0,71.7,29.71,NW,315,0.0,2.0,71,0.00,,---,0.10,VWS V14.01,2013-07-20 23:05:00,
2013-07-20 19:10:00,82.0,72.5,29.71,NW,315,0.0,0.0,73,0.00,,---,0.10,VWS V14.01,2013-07-20 23:10:00,
2013-07-20 19:15:00,82.0,71.7,29.72,SSW,202,0.0,0.0,71,0.00,,---,0.10,VWS V14.01,2013-07-20 23:15:00,
2013-07-20 19:20:00,82.0,71.3,29.72,South,180,0.0,2.0,70,0.00,,---,0.10,VWS V14.01,2013-07-20 23:20:00,
2013-07-20 19:25:00,82.0,70.8,29.72,West,270,0.0,2.0,69,0.00,,---,0.10,VWS V14.01,2013-07-20 23:25:00,
2013-07-20 19:30:00,82.0,70.8,29.72,SSW,202,0.0,0.0,69,0.00,,---,0.10,VWS V14.01,2013-07-20 23:30:00,
2013-07-20 19:35:00,81.0,70.3,29.72,SW,225,2.0,2.0,70,0.00,,---,0.10,VWS V14.01,2013-07-20 23:35:00,
2013-07-20 19:40:00,81.0,70.7,29.73,NNW,337,0.0,2.0,71,0.00,,---,0.10,VWS V14.01,2013-07-20 23:40:00,
2013-07-20 19:45:00,81.0,70.3,29.73,NW,315,0.0,3.0,70,0.00,,---,0.10,VWS V14.01,2013-07-20 23:45:00,
2013-07-20 19:50:00,81.0,70.3,29.73,NNW,337,0.0,2.0,70,0.00,,---,0.10,VWS V14.01,2013-07-20 23:50:00,
2013-07-20 19:55:00,80.0,69.3,29.73,North,360,2.0,2.0,70,0.00,,---,0.10,VWS V14.01,2013-07-20 23:55:00,
2013-07-20 20:00:00,80.0,69.8,29.73,NNW,337,0.0,2.0,71,0.00,,---,0.10,VWS V14.01,2013-07-21 00:00:00,
2013-07-20 20:05:00,80.0,69.3,29.73,NNW,337,0.0,0.0,70,0.00,,---,0.10,VWS V14.01,2013-07-21 00:05:00,
2013-07-20 20:10:00,79.0,68.0,29.73,South,180,0.0,0.0,69,0.00,,---,0.10,VWS V14.01,2013-07-21 00:10:00,
2013-07-20 20:15:00,79.0,67.6,29.74,North,360,0.0,3.0,68,0.00,,---,0.10,VWS V14.01,2013-07-21 00:15:00,
2013-07-20 20:20:00,79.0,68.0,29.74,West,270,0.0,2.0,69,0.00,,---,0.10,VWS V14.01,2013-07-21 00:20:00,
2013-07-20 20:25:00,79.0,67.1,29.74,North,360,0.0,3.0,67,0.00,,---,0.10,VWS V14.01,2013-07-21 00:25:00,
2013-07-20 20:30:00,79.0,67.6,29.74,NNE,22,0.0,1.0,68,0.00,,---,0.10,VWS V14.01,2013-07-21 00:30:00,
2013-07-20 20:35:00,79.0,67.6,29.74,WNW,292,0.0,0.0,68,0.00,,---,0.10,VWS V14.01,2013-07-21 00:35:00,
2013-07-20 20:40:00,79.0,67.1,29.74,NNW,337,0.0,0.0,67,0.00,,---,0.10,VWS V14.01,2013-07-21 00:40:00,
2013-07-20 20:45:00,79.0,67.6,29.74,NNE,22,0.0,0.0,68,0.00,,---,0.10,VWS V14.01,2013-07-21 00:45:00,
2013-07-20 20:50:00,79.0,67.1,29.74,WSW,247,0.0,0.0,67,0.00,,---,0.10,VWS V14.01,2013-07-21 00:50:00,
2013-07-20 20:55:00,78.0,67.0,29.74,North,360,0.0,2.0,69,0.00,,---,0.10,VWS V14.01,2013-07-21 00:55:00,
2013-07-20 21:00:00,78.0,67.4,29.75,North,360,0.0,0.0,70,0.00,,---,0.10,VWS V14.01,2013-07-21 01:00:00,
2013-07-20 21:05:00,78.0,67.4,29.75,ESE,112,0.0,0.0,70,0.00,,---,0.10,VWS V14.01,2013-07-21 01:05:00,
2013-07-20 21:10:00,77.0,67.7,29.75,ESE,112,0.0,0.0,73,0.00,,---,0.10,VWS V14.01,2013-07-21 01:10:00,
2013-07-20 21:15:00,77.0,67.7,29.75,ESE,112,0.0,0.0,73,0.00,,---,0.10,VWS V14.01,2013-07-21 01:15:00,
2013-07-20 21:20:00,76.0,66.7,29.76,ESE,112,0.0,0.0,73,0.00,,---,0.10,VWS V14.01,2013-07-21 01:20:00,
2013-07-20 21:25:00,76.0,67.9,29.76,ESE,112,0.0,0.0,76,0.00,,---,0.10,VWS V14.01,2013-07-21 01:25:00,
2013-07-20 21:30:00,75.0,67.7,29.76,ESE,112,0.0,0.0,78,0.00,,---,0.10,VWS V14.01,2013-07-21 01:30:00,
2013-07-20 21:35:00,75.0,67.3,29.76,ESE,112,0.0,0.0,77,0.00,,---,0.10,VWS V14.01,2013-07-21 01:35:00,
2013-07-20 21:40:00,75.0,67.3,29.76,ESE,112,0.0,0.0,77,0.00,,---,0.10,VWS V14.01,2013-07-21 01:40:00,
2013-07-20 21:45:00,74.0,67.1,29.76,ESE,112,0.0,0.0,79,0.00,,---,0.10,VWS V14.01,2013-07-21 01:45:00,
2013-07-20 21:50:00,74.0,67.4,29.76,ESE,112,0.0,0.0,80,0.00,,---,0.10,VWS V14.01,2013-07-21 01:50:00,
2013-07-20 21:55:00,74.0,68.2,29.76,ESE,112,0.0,0.0,82,0.00,,---,0.10,VWS V14.01,2013-07-21 01:55:00,
2013-07-20 22:00:00,73.0,67.5,29.77,ESE,112,0.0,0.0,83,0.00,,---,0.10,VWS V14.01,2013-07-21 02:00:00,
2013-07-20 22:05:00,73.0,67.9,29.77,ESE,112,0.0,0.0,84,0.00,,---,0.10,VWS V14.01,2013-07-21 02:05:00,
2013-07-20 22:10:00,73.0,68.6,29.77,ESE,112,0.0,0.0,86,0.00,,---,0.10,VWS V14.01,2013-07-21 02:10:00,
2013-07-20 22:15:00,72.0,67.6,29.77,ESE,112,0.0,0.0,86,0.00,,---,0.10,VWS V14.01,2013-07-21 02:15:00,
2013-07-20 22:20:00,72.0,67.6,29.77,ESE,112,0.0,0.0,86,0.00,,---,0.10,VWS V14.01,2013-07-21 02:20:00,
2013-07-20 22:25:00,72.0,67.6,29.77,ESE,112,0.0,0.0,86,0.00,,---,0.10,VWS V14.01,2013-07-21 02:25:00,
2013-07-20 22:30:00,72.0,67.9,29.78,ESE,112,0.0,0.0,87,0.00,,---,0.10,VWS V14.01,2013-07-21 02:30:00,
2013-07-20 22:35:00,71.0,66.9,29.78,ESE,112,0.0,0.0,87,0.00,,---,0.10,VWS V14.01,2013-07-21 02:35:00,
2013-07-20 22:40:00,71.0,67.6,29.78,ESE,112,0.0,0.0,89,0.00,,---,0.10,VWS V14.01,2013-07-21 02:40:00,
2013-07-20 22:45:00,71.0,67.6,29.78,ESE,112,0.0,0.0,89,0.00,,---,0.10,VWS V14.01,2013-07-21 02:45:00,
2013-07-20 22:50:00,71.0,67.9,29.78,ESE,112,0.0,0.0,90,0.00,,---,0.10,VWS V14.01,2013-07-21 02:50:00,
2013-07-20 22:55:00,70.0,66.9,29.78,ESE,112,0.0,0.0,90,0.00,,---,0.10,VWS V14.01,2013-07-21 02:55:00,
2013-07-20 23:00:00,70.0,67.6,29.78,ESE,112,0.0,0.0,92,0.00,,---,0.10,VWS V14.01,2013-07-21 03:00:00,
2013-07-20 23:05:00,70.0,67.9,29.78,ESE,112,0.0,0.0,93,0.00,,---,0.10,VWS V14.01,2013-07-21 03:05:00,
2013-07-20 23:10:00,70.0,67.9,29.78,ESE,112,0.0,0.0,93,0.00,,---,0.10,VWS V14.01,2013-07-21 03:10:00,
2013-07-20 23:15:00,70.0,68.2,29.78,ESE,112,0.0,0.0,94,0.00,,---,0.10,VWS V14.01,2013-07-21 03:15:00,
2013-07-20 23:20:00,70.0,68.2,29.78,ESE,112,0.0,0.0,94,0.00,,---,0.10,VWS V14.01,2013-07-21 03:20:00,